TimeEST,TemperatureF,Dew PointF,Humidity,Sea Level PressureIn,VisibilityMPH,Wind Direction,Wind SpeedMPH,Gust SpeedMPH,PrecipitationIn,Events,Conditions,WindDirDegrees,DateUTC
12:55 AM,48.9,48.2,97,30.29,10.0,Calm,Calm,-,N/A,,Clear,0,2012-12-04 05:55:00
1:55 AM,48.6,48.4,99,30.29,10.0,Calm,Calm,-,N/A,,Clear,0,2012-12-04 06:55:00
2:47 AM,46.4,46.4,100,30.29,2.0,Calm,Calm,-,N/A,,Clear,0,2012-12-04 07:47:00
2:48 AM,46.4,46.4,100,30.29,1.5,Calm,Calm,-,N/A,,Clear,0,2012-12-04 07:48:00
2:50 AM,46.4,46.4,100,30.29,1.2,Calm,Calm,-,N/A,,Clear,0,2012-12-04 07:50:00
2:54 AM,46.4,46.4,100,30.29,1.5,Calm,Calm,-,N/A,,Clear,0,2012-12-04 07:54:00
2:55 AM,46.6,46.4,99,30.29,1.5,Calm,Calm,-,N/A,,Clear,0,2012-12-04 07:55:00
2:56 AM,46.4,46.4,100,30.29,1.8,Calm,Calm,-,N/A,,Clear,0,2012-12-04 07:56:00
2:57 AM,46.4,46.4,100,30.29,2.5,Calm,Calm,-,N/A,,Clear,0,2012-12-04 07:57:00
2:58 AM,46.4,46.4,100,30.29,4.0,Calm,Calm,-,N/A,,Clear,0,2012-12-04 07:58:00
3:44 AM,46.4,46.4,100,30.29,8.0,Calm,Calm,-,N/A,,Partly Cloudy,0,2012-12-04 08:44:00
3:51 AM,48.2,48.2,100,30.29,2.5,Calm,Calm,-,N/A,,Scattered Clouds,0,2012-12-04 08:51:00
3:53 AM,48.2,48.2,100,30.29,1.5,Calm,Calm,-,N/A,,Scattered Clouds,0,2012-12-04 08:53:00
3:54 AM,48.2,48.2,100,30.29,1.2,Calm,Calm,-,N/A,,Mostly Cloudy,0,2012-12-04 08:54:00
3:55 AM,48.0,47.8,99,30.29,1.0,Calm,Calm,-,N/A,,Mist,0,2012-12-04 08:55:00
3:56 AM,48.2,48.2,100,30.29,0.8,Calm,Calm,-,N/A,,Mist,0,2012-12-04 08:56:00
3:57 AM,48.2,48.2,100,30.29,0.5,Calm,Calm,-,N/A,Fog,Fog,0,2012-12-04 08:57:00
3:59 AM,48.2,48.2,100,30.29,0.5,Calm,Calm,-,N/A,Fog,Fog,0,2012-12-04 08:59:00
4:00 AM,48.2,48.2,100,30.29,0.2,Calm,Calm,-,N/A,Fog,Fog,0,2012-12-04 09:00:00
4:01 AM,48.2,48.2,100,30.29,0.2,Calm,Calm,-,N/A,Fog,Fog,0,2012-12-04 09:01:00
4:55 AM,47.3,47.3,100,30.29,0.2,Calm,Calm,-,N/A,Fog,Fog,0,2012-12-04 09:55:00
5:55 AM,48.9,48.9,100,30.30,0.2,Calm,Calm,-,N/A,Fog,Fog,0,2012-12-04 10:55:00
6:08 AM,50.0,50.0,100,30.30,0.2,East,1.2,-,N/A,Fog,Fog,90,2012-12-04 11:08:00
6:55 AM,49.5,49.5,100,30.32,0.2,Calm,Calm,-,N/A,Fog,Fog,0,2012-12-04 11:55:00
7:00 AM,50.0,50.0,100,30.32,0.2,Calm,Calm,-,N/A,Fog,Fog,0,2012-12-04 12:00:00
7:43 AM,50.0,50.0,100,30.33,0.3,East,1.2,-,N/A,Fog,Fog,80,2012-12-04 12:43:00
7:55 AM,50.7,50.7,100,30.33,0.3,Calm,Calm,-,N/A,Fog,Fog,0,2012-12-04 12:55:00
8:14 AM,51.8,51.8,100,30.34,1.2,Calm,Calm,-,N/A,,Mostly Cloudy,0,2012-12-04 13:14:00
8:27 AM,51.8,51.8,100,30.34,2.5,Calm,Calm,-,N/A,,Mostly Cloudy,0,2012-12-04 13:27:00
8:31 AM,51.8,51.8,100,30.35,3.0,Calm,Calm,-,N/A,,Mostly Cloudy,0,2012-12-04 13:31:00
8:55 AM,54.5,54.5,100,30.35,10.0,Calm,Calm,-,N/A,,Mostly Cloudy,0,2012-12-04 13:55:00
9:55 AM,59.9,59.9,100,30.36,10.0,WSW,4.6,-,N/A,,Mostly Cloudy,240,2012-12-04 14:55:00
10:55 AM,62.4,62.4,100,30.35,10.0,Calm,Calm,-,N/A,,Mostly Cloudy,0,2012-12-04 15:55:00
11:55 AM,68.9,58.3,69,30.32,10.0,SW,10.4,-,N/A,,Mostly Cloudy,230,2012-12-04 16:55:00
12:55 PM,69.1,58.3,68,30.30,10.0,SSW,4.6,-,N/A,,Mostly Cloudy,210,2012-12-04 17:55:00
1:55 PM,72.0,56.5,58,30.26,10.0,Variable,5.8,-,N/A,,Mostly Cloudy,0,2012-12-04 18:55:00
2:55 PM,73.4,53.8,50,30.25,10.0,SSW,8.1,-,N/A,,Mostly Cloudy,200,2012-12-04 19:55:00
3:55 PM,73.2,52.3,48,30.24,10.0,South,8.1,-,N/A,,Mostly Cloudy,190,2012-12-04 20:55:00
4:55 PM,69.8,54.5,58,30.24,10.0,SSW,5.8,-,N/A,,Mostly Cloudy,210,2012-12-04 21:55:00
5:55 PM,66.7,55.0,66,30.25,10.0,South,3.5,-,N/A,,Mostly Cloudy,170,2012-12-04 22:55:00
6:55 PM,58.5,53.2,83,30.24,10.0,Calm,Calm,-,N/A,,Mostly Cloudy,0,2012-12-04 23:55:00
7:55 PM,56.5,52.3,86,30.25,10.0,Calm,Calm,-,N/A,,Scattered Clouds,0,2012-12-05 00:55:00
8:55 PM,54.0,53.1,97,30.26,10.0,Calm,Calm,-,N/A,,Mostly Cloudy,0,2012-12-05 01:55:00
9:55 PM,53.1,52.2,97,30.25,10.0,Calm,Calm,-,N/A,,Scattered Clouds,0,2012-12-05 02:55:00
10:55 PM,51.4,51.3,99,30.25,10.0,Calm,Calm,-,N/A,,Scattered Clouds,0,2012-12-05 03:55:00
11:55 PM,50.7,50.4,99,30.24,10.0,Calm,Calm,-,N/A,,Clear,0,2012-12-05 04:55:00